SCP
-0 -0 -0 -0 -0 -0 -0 -0 -0 -0 -0 0 0 1 1 0 0 0 0 0 0 0 0 0 0 0 0 0 0 0 0 0 0 0 0 0 0 0 0 0 0 0 0
0 0 0 -0 -0 -0 -0 -0 -0 0 -0 0 1 2 1 0 0 0 0 0 0 0 0 0 0 0 0 0 0 0 0 0 0 0 0 0 0 0 0 0 0 0 0
-0 0 0 -0 -0 -0 -0 -0 -0 0 0 1 1 0 0 0 0 0 0 0 0 0 0 0 0 0 0 0 0 0 0 0 0 0 0 0 0 0 0 0 0 0 0
-0 -0 -0 0 -0 -0 -0 -0 0 0 1 1 3 2 2 1 0 0 0 0 0 0 0 0 0 0 0 0 0 0 0 0 0 0 0 0 0 0 0 0 0 0 0
-0 -0 -0 -0 -0 0 -0 0 0 0 1 1 1 1 0 1 0 0 0 0 0 0 0 0 0 0 0 0 0 0 0 0 0 0 0 0 0 0 0 0 0 0 0
0 -0 -0 -0 0 0 0 0 0 0 1 1 1 0 2 0 0 0 0 0 0 0 0 0 0 0 0 0 0 0 0 0 0 0 0 0 0 0 0 0 0 0 0
0 0 0 0 0 0 0 0 0 0 1 1 2 3 2 0 0 0 0 0 0 0 0 0 0 0 0 0 0 0 0 0 0 0 0 0 0 0 0 0 0 0 0
0 0 0 0 0 0 0 0 0 0 1 2 3 1 0 0 0 0 0 0 0 0 0 0 0 0 0 0 0 0 0 0 0 0 0 0 0 0 0 0 0 0 0
0 0 0 0 0 0 1 0 0 1 2 1 2 0 0 0 0 0 0 0 0 0 0 0 0 0 0 0 0 0 0 0 0 0 0 0 0 0 0 0 0 0 0
0 0 0 0 0 1 1 1 1 1 1 0 1 0 0 0 0 0 0 0 0 0 0 0 0 0 0 0 0 0 0 0 0 0 0 0 0 0 0 0 0 0 0
0 0 0 0 0 0 1 2 1 0 0 0 2 0 0 0 0 0 0 0 0 0 0 0 0 0 0 0 0 0 0 0 0 0 0 0 0 0 0 0 0 0 0
0 0 0 0 0 1 2 2 1 0 0 2 1 0 0 0 0 0 0 0 0 0 0 0 0 0 0 0 0 0 0 0 0 0 0 0 0 0 0 0 0 0 0
0 0 1 1 1 1 2 2 0 0 0 0 0 0 0 0 0 0 0 0 0 0 0 0 0 0 0 0 0 0 0 0 0 0 0 0 0 0 0 0 0 0 0
0 0 1 1 1 1 1 1 0 0 0 1 1 0 0 0 0 0 0 0 0 0 0 0 0 0 0 0 0 0 0 0 0 0 0 0 0 0 0 0 0 0 0
-0 0 0 0 1 1 1 0 0 0 1 1 1 0 0 0 0 0 0 0 0 0 0 0 0 0 0 0 0 0 0 0 0 0 0 0 0 0 0 0 0 0 0
-0 -0 -0 0 0 1 1 1 0 0 2 2 1 1 1 0 0 0 0 0 0 0 0 0 0 0 0 0 0 0 0 0 0 0 0 0 0 0 0 0 0 0 0
-0 0 -0 0 0 0 0 0 0 0 4 3 2 1 1 0 0 0 0 0 0 0 0 0 0 0 0 0 0 0 0 0 0 0 0 0 0 0 0 0 0 0 0
0 0 0 -0 0 0 0 0 0 1 4 4 3 2 1 1 0 0 0 0 0 0 0 0 0 0 0 0 0 0 0 0 0 0 0 0 0 0 0 0 0 0 -0
0 0 0 0 0 0 0 1 2 1 3 4 4 3 2 1 0 0 0 0 0 0 0 0 0 0 0 0 0 0 0 0 0 0 0 0 0 0 0 0 0 -0 -0
0 0 0 0 -0 0 0 0 1 3 2 2 4 4 2 1 0 0 0 0 0 0 0 0 0 0 0 0 0 0 0 0 0 0 0 0 0 0 0 0 0 0 -0
-0 -0 -0 0 -0 -0 -0 0 0 0 0 2 2 3 3 1 0 0 0 0 0 0 0 0 0 0 0 0 0 0 0 0 0 0 0 0 0 0 0 0 -0 0 0
-0 -0 -0 -0 -0 -0 -0 -0 0 0 0 1 3 2 0 1 0 0 0 0 0 0 0 0 0 0 0 0 0 0 0 0 0 0 0 0 0 0 0 -0 -0 0 0
-0 -0 -0 -0 -0 -0 -0 -0 -0 -0 0 -0 -0 1 0 0 0 0 0 0 0 0 0 0 0 0 0 0 0 0 0 0 0 0 0 0 0 0 0 -0 -0 0 0
0 0 0 0 0 0 0 0 0 0 0 0 0 0 0 0 0 0 0 0 0 0 0 0 0 0 0 0 0 0 0 0 0 0 0 0 0 0 -0 -0 -0 -0 -0
0 0 0 0 0 0 0 0 0 0 0 0 0 0 0 0 0 0 0 0 0 0 0 0 0 0 0 0 0 0 0 0 0 0 0 0 0 0 -0 -0 -0 -0 -0
0 0 0 0 0 0 0 0 0 0 0 0 0 0 0 0 0 0 0 0 0 0 0 0 0 0 0 0 0 0 0 0 0 0 0 0 0 0 -0 -0 -0 -0 -0
Wind_Speed_500mb
103 97 97 93 91 89 86 85 86 74 70 71 67 65 61 56 54 50 48 40 37 32 26 25 24 23 19 16 14 6 6 8 8 16 27 24 21 14 10 4 3 1 3
82 97 100 100 102 105 102 96 93 86 79 79 79 77 68 62 58 56 51 47 41 34 28 25 26 26 23 19 13 7 6 13 16 24 25 20 15 9 6 5 4 6 4
102 103 105 106 109 110 114 107 102 94 88 86 82 79 71 67 67 66 61 52 42 30 27 29 29 31 28 23 18 12 9 11 18 23 16 11 12 12 8 6 7 7 7
90 99 109 109 110 116 114 113 108 103 98 89 90 85 78 84 83 76 62 54 47 37 33 32 31 33 31 27 22 17 12 8 4 12 16 15 12 11 10 12 12 10 9
109 110 111 117 118 110 113 123 119 111 106 99 91 87 81 88 81 76 63 58 50 41 36 35 37 38 36 30 23 18 14 10 7 7 9 10 10 9 7 9 14 14 16
102 107 119 126 106 106 114 123 126 121 114 104 92 91 84 94 85 79 68 60 53 46 40 40 41 41 37 33 26 19 15 8 5 7 13 15 16 16 9 10 13 12 8
70 99 106 107 118 112 125 125 133 127 122 108 98 93 91 95 84 80 72 64 38 52 50 48 48 46 39 36 30 23 15 8 3 3 6 9 12 11 9 5 7 13 10
57 70 96 116 121 138 134 131 135 133 124 113 104 92 90 94 85 80 78 69 51 49 52 50 50 47 45 41 35 27 18 11 5 7 7 8 9 10 13 12 10 11 7
34 46 69 86 116 127 136 138 132 131 126 121 106 98 80 87 86 78 78 59 53 49 53 53 52 52 52 49 41 31 23 15 10 11 7 9 9 9 8 10 9 8 8
23 14 11 58 102 115 125 123 125 127 129 123 112 115 74 74 79 74 75 64 55 54 57 56 57 55 57 53 43 34 29 21 17 14 11 10 11 9 9 10 13 12 10
24 26 32 51 75 100 113 118 117 121 118 115 118 120 88 66 76 78 81 72 58 59 63 61 61 60 60 55 45 38 33 28 23 17 14 11 12 11 7 6 5 6 2
29 27 42 50 71 88 106 118 117 116 115 110 115 111 92 71 76 82 79 74 61 63 64 66 62 61 62 55 48 45 43 36 28 21 17 12 18 14 8 7 8 6 5
63 52 46 59 71 85 100 104 115 118 112 111 113 101 84 72 77 86 82 72 67 67 69 73 67 65 63 55 50 47 47 41 34 26 19 18 21 15 13 11 9 8 7
68 57 58 69 76 86 98 106 113 115 113 112 115 104 79 79 82 88 81 76 74 72 77 77 69 67 61 56 57 55 57 49 39 32 27 25 18 14 13 10 9 9 10
80 83 69 56 84 85 93 106 117 120 115 117 117 108 87 83 80 80 75 69 74 78 75 74 71 71 68 66 69 66 66 53 45 33 33 28 19 15 13 12 13 11 10
73 88 85 69 57 92 103 103 110 119 117 117 120 106 92 80 72 67 64 71 74 74 73 73 75 80 78 72 76 75 73 56 50 44 40 30 23 16 13 12 12 11 9
78 79 85 87 68 60 81 104 110 120 118 121 122 109 92 79 68 62 64 71 73 74 77 76 79 77 78 81 87 78 60 54 39 40 39 30 26 15 13 15 12 11 11
85 81 74 78 81 64 55 80 87 114 120 119 121 110 96 82 75 72 68 71 75 77 76 75 78 82 87 91 88 76 64 54 45 42 37 32 26 17 17 19 16 15 21
76 78 74 67 69 64 47 47 66 91 111 123 126 121 104 91 78 69 72 66 76 77 79 78 82 88 95 101 86 74 64 57 48 50 37 31 21 18 19 22 21 28 19
69 74 72 64 59 70 58 42 30 56 87 114 129 127 109 94 86 82 54 50 84 83 85 82 81 89 100 87 78 68 59 50 51 40 45 38 25 19 24 25 34 28 21
64 68 72 64 53 55 64 57 39 46 47 70 88 106 119 99 75 58 64 79 84 86 82 81 83 92 103 90 76 48 46 47 48 51 51 45 30 24 29 35 35 28 21
60 63 67 68 62 51 47 51 47 46 53 55 58 109 124 98 85 76 72 82 79 84 82 86 91 90 92 84 62 46 52 36 50 58 55 42 29 29 33 37 36 29 21
61 56 57 62 52 43 37 39 35 33 53 68 56 86 107 78 74 69 72 79 84 85 84 90 92 97 90 76 65 58 48 45 51 62 55 43 31 29 36 38 36 32 27
70 63 49 47 46 30 27 29 32 39 38 34 52 91 97 67 74 72 72 81 83 83 83 93 95 94 94 77 80 64 55 57 63 63 57 48 38 32 41 40 37 35 28
70 63 54 45 47 37 26 25 26 27 16 19 40 27 44 62 62 63 64 64 66 65 74 86 86 99 87 80 77 68 78 73 70 62 59 55 51 47 50 46 41 36 28
61 60 55 49 44 33 32 18 18 22 25 24 37 39 34 48 56 60 62 64 55 49 55 42 68 89 82 78 76 67 74 73 68 63 58 62 59 53 56 48 43 36 28
Wind_Direction_500mb
212 210 216 219 220 218 217 217 216 217 215 211 205 206 214 220 228 231 231 240 247 259 251 242 237 216 207 210 207 215 127 136 139 162 160 148 149 160 144 155 86 1 62
219 217 219 221 223 223 220 217 219 219 217 218 217 216 220 225 228 231 236 243 251 250 239 232 228 217 212 203 207 234 174 151 169 177 163 132 130 136 98 35 85 137 136
217 215 218 220 222 225 221 218 219 219 217 218 219 220 223 224 227 229 233 239 243 245 231 228 223 216 208 205 201 213 238 154 162 187 203 200 206 158 89 36 37 41 118
226 225 217 221 224 226 223 220 220 220 215 218 222 222 228 226 228 230 231 240 240 238 228 228 226 213 209 204 199 203 203 237 168 183 210 233 219 186 169 78 68 96 112
231 229 225 222 224 226 225 222 221 220 217 221 225 228 225 233 234 227 232 237 237 221 224 231 224 211 209 210 205 196 185 206 216 237 245 247 252 239 206 164 112 105 87
239 239 234 232 222 226 224 224 221 220 219 223 227 231 238 229 226 222 233 234 227 215 221 228 219 213 212 212 211 205 186 193 186 202 224 238 245 255 226 158 147 153 131
252 241 230 224 222 221 225 223 219 220 221 222 225 231 241 235 233 232 234 233 255 214 220 222 217 214 215 215 212 208 203 217 240 244 234 239 232 215 240 233 197 178 170
264 246 237 225 221 222 223 221 220 220 220 220 225 229 245 238 232 231 239 248 251 212 218 220 217 216 219 219 216 213 212 224 238 253 247 244 246 250 256 247 232 195 194
274 264 239 227 217 217 217 221 221 221 220 221 223 229 248 234 234 230 239 253 234 218 217 218 215 215 219 220 219 216 215 222 231 246 255 253 260 257 250 259 250 234 200
294 266 249 224 218 220 219 219 221 225 224 221 222 230 251 234 237 231 237 248 238 220 219 216 215 216 215 216 215 214 217 221 226 241 256 265 274 254 241 244 253 263 244
297 262 224 225 226 219 217 219 223 227 227 224 224 232 247 248 238 230 235 244 230 221 217 218 215 214 213 214 216 218 219 218 225 236 243 261 263 243 214 209 237 257 226
284 268 240 226 219 218 218 222 225 228 227 226 224 232 244 249 233 228 233 240 230 223 220 220 217 215 215 215 217 218 217 216 225 231 227 243 233 227 223 164 152 175 186
346 283 242 232 222 221 221 224 226 227 225 221 225 230 243 244 230 229 235 235 231 223 218 221 219 218 216 216 218 220 215 218 223 221 224 217 212 209 190 180 174 175 166
358 350 294 246 229 224 223 226 227 227 225 222 223 229 241 236 228 230 231 233 227 220 216 219 221 222 220 220 220 218 212 215 216 209 209 199 186 185 179 177 165 156 145
359 359 350 300 262 234 232 225 228 229 226 223 224 229 235 229 228 226 228 231 219 218 219 220 220 222 223 222 220 217 209 214 203 206 195 180 178 173 172 177 173 176 179
353 356 353 352 299 262 237 230 227 228 228 225 225 229 231 226 223 222 225 219 215 219 221 222 223 221 222 226 228 215 208 203 199 193 191 177 176 174 174 175 176 168 164
351 350 354 355 348 296 271 245 228 228 228 227 226 229 228 224 218 218 219 217 218 220 222 225 228 226 227 229 222 206 202 194 187 198 189 177 181 176 168 180 171 167 157
349 347 345 346 352 339 288 268 250 233 228 229 227 227 226 222 217 210 211 217 218 222 224 228 229 227 227 224 213 198 188 194 182 188 202 184 175 174 173 177 178 168 151
344 341 337 338 334 346 336 271 257 247 237 228 228 226 222 214 212 211 207 218 227 225 225 227 228 225 223 213 205 190 187 186 176 191 198 180 181 174 179 180 172 163 156
345 339 334 329 325 320 336 334 294 257 245 246 233 225 214 210 208 203 198 209 229 226 224 223 225 226 219 206 193 184 180 186 191 185 191 181 183 187 177 174 169 163 154
342 338 330 329 332 325 319 323 308 288 297 251 240 232 211 205 202 197 211 219 218 223 222 222 225 223 215 200 190 178 199 195 189 182 180 172 179 180 172 171 169 173 165
318 332 334 325 325 322 322 309 305 291 300 263 270 236 224 195 197 204 211 216 216 218 217 219 216 210 204 204 180 187 201 205 196 186 176 168 172 174 173 173 176 178 164
320 315 323 330 317 323 316 316 309 312 283 285 280 249 202 193 200 205 210 213 214 215 216 215 214 203 194 189 191 189 202 193 186 185 176 179 178 173 176 172 177 171 160
313 319 307 319 326 322 338 0 334 294 288 292 283 205 214 199 203 206 212 214 208 208 211 212 208 197 189 188 199 192 187 183 191 191 185 184 182 183 181 179 175 170 163
307 311 312 299 303 305 336 343 2 12 24 15 320 193 183 204 201 204 209 214 213 212 215 216 214 207 192 196 202 201 184 185 194 196 194 194 192 189 185 181 178 175 174
307 306 298 299 289 288 286 321 339 9 1 37 312 294 230 208 199 198 199 208 213 216 222 229 234 206 205 197 202 200 186 187 193 196 202 195 193 193 190 190 190 189 196
Wind_Speed_850mb
103 97 97 93 91 89 86 85 86 74 70 71 67 65 61 56 54 50 48 40 37 32 26 25 24 23 19 16 14 6 6 8 8 16 27 24 21 14 10 4 3 1 3
82 97 100 100 102 105 102 96 93 86 79 79 79 77 68 62 58 56 51 47 41 34 28 25 26 26 23 19 13 7 6 13 16 24 25 20 15 9 6 5 4 6 4
102 103 105 106 109 110 114 107 102 94 88 86 82 79 71 67 67 66 61 52 42 30 27 29 29 31 28 23 18 12 9 11 18 23 16 11 12 12 8 6 7 7 7
90 99 109 109 110 116 114 113 108 103 98 89 90 85 78 84 83 76 62 54 47 37 33 32 31 33 31 27 22 17 12 8 4 12 16 15 12 11 10 12 12 10 9
109 110 111 117 118 110 113 123 119 111 106 99 91 87 81 88 81 76 63 58 50 41 36 35 37 38 36 30 23 18 14 10 7 7 9 10 10 9 7 9 14 14 16
102 107 119 126 106 106 114 123 126 121 114 104 92 91 84 94 85 79 68 60 53 46 40 40 41 41 37 33 26 19 15 8 5 7 13 15 16 16 9 10 13 12 8
70 99 106 107 118 112 125 125 133 127 122 108 98 93 91 95 84 80 72 64 38 52 50 48 48 46 39 36 30 23 15 8 3 3 6 9 12 11 9 5 7 13 10
57 70 96 116 121 138 134 131 135 133 124 113 104 92 90 94 85 80 78 69 51 49 52 50 50 47 45 41 35 27 18 11 5 7 7 8 9 10 13 12 10 11 7
34 46 69 86 116 127 136 138 132 131 126 121 106 98 80 87 86 78 78 59 53 49 53 53 52 52 52 49 41 31 23 15 10 11 7 9 9 9 8 10 9 8 8
23 14 11 58 102 115 125 123 125 127 129 123 112 115 74 74 79 74 75 64 55 54 57 56 57 55 57 53 43 34 29 21 17 14 11 10 11 9 9 10 13 12 10
24 26 32 51 75 100 113 118 117 121 118 115 118 120 88 66 76 78 81 72 58 59 63 61 61 60 60 55 45 38 33 28 23 17 14 11 12 11 7 6 5 6 2
29 27 42 50 71 88 106 118 117 116 115 110 115 111 92 71 76 82 79 74 61 63 64 66 62 61 62 55 48 45 43 36 28 21 17 12 18 14 8 7 8 6 5
63 52 46 59 71 85 100 104 115 118 112 111 113 101 84 72 77 86 82 72 67 67 69 73 67 65 63 55 50 47 47 41 34 26 19 18 21 15 13 11 9 8 7
68 57 58 69 76 86 98 106 113 115 113 112 115 104 79 79 82 88 81 76 74 72 77 77 69 67 61 56 57 55 57 49 39 32 27 25 18 14 13 10 9 9 10
80 83 69 56 84 85 93 106 117 120 115 117 117 108 87 83 80 80 75 69 74 78 75 74 71 71 68 66 69 66 66 53 45 33 33 28 19 15 13 12 13 11 10
73 88 85 69 57 92 103 103 110 119 117 117 120 106 92 80 72 67 64 71 74 74 73 73 75 80 78 72 76 75 73 56 50 44 40 30 23 16 13 12 12 11 9
78 79 85 87 68 60 81 104 110 120 118 121 122 109 92 79 68 62 64 71 73 74 77 76 79 77 78 81 87 78 60 54 39 40 39 30 26 15 13 15 12 11 11
85 81 74 78 81 64 55 80 87 114 120 119 121 110 96 82 75 72 68 71 75 77 76 75 78 82 87 91 88 76 64 54 45 42 37 32 26 17 17 19 16 15 21
76 78 74 67 69 64 47 47 66 91 111 123 126 121 104 91 78 69 72 66 76 77 79 78 82 88 95 101 86 74 64 57 48 50 37 31 21 18 19 22 21 28 19
69 74 72 64 59 70 58 42 30 56 87 114 129 127 109 94 86 82 54 50 84 83 85 82 81 89 100 87 78 68 59 50 51 40 45 38 25 19 24 25 34 28 21
64 68 72 64 53 55 64 57 39 46 47 70 88 106 119 99 75 58 64 79 84 86 82 81 83 92 103 90 76 48 46 47 48 51 51 45 30 24 29 35 35 28 21
60 63 67 68 62 51 47 51 47 46 53 55 58 109 124 98 85 76 72 82 79 84 82 86 91 90 92 84 62 46 52 36 50 58 55 42 29 29 33 37 36 29 21
61 56 57 62 52 43 37 39 35 33 53 68 56 86 107 78 74 69 72 79 84 85 84 90 92 97 90 76 65 58 48 45 51 62 55 43 31 29 36 38 36 32 27
70 63 49 47 46 30 27 29 32 39 38 34 52 91 97 67 74 72 72 81 83 83 83 93 95 94 94 77 80 64 55 57 63 63 57 48 38 32 41 40 37 35 28
70 63 54 45 47 37 26 25 26 27 16 19 40 27 44 62 62 63 64 64 66 65 74 86 86 99 87 80 77 68 78 73 70 62 59 55 51 47 50 46 41 36 28
61 60 55 49 44 33 32 18 18 22 25 24 37 39 34 48 56 60 62 64 55 49 55 42 68 89 82 78 76 67 74 73 68 63 58 62 59 53 56 48 43 36 28
Wind_Direction_850mb
212 210 216 219 220 218 217 217 216 217 215 211 205 206 214 220 228 231 231 240 247 259 251 242 237 216 207 210 207 215 127 136 139 162 160 148 149 160 144 155 86 1 62
219 217 219 221 223 223 220 217 219 219 217 218 217 216 220 225 228 231 236 243 251 250 239 232 228 217 212 203 207 234 174 151 169 177 163 132 130 136 98 35 85 137 136
217 215 218 220 222 225 221 218 219 219 217 218 219 220 223 224 227 229 233 239 243 245 231 228 223 216 208 205 201 213 238 154 162 187 203 200 206 158 89 36 37 41 118
226 225 217 221 224 226 223 220 220 220 215 218 222 222 228 226 228 230 231 240 240 238 228 228 226 213 209 204 199 203 203 237 168 183 210 233 219 186 169 78 68 96 112
231 229 225 222 224 226 225 222 221 220 217 221 225 228 225 233 234 227 232 237 237 221 224 231 224 211 209 210 205 196 185 206 216 237 245 247 252 239 206 164 112 105 87
239 239 234 232 222 226 224 224 221 220 219 223 227 231 238 229 226 222 233 234 227 215 221 228 219 213 212 212 211 205 186 193 186 202 224 238 245 255 226 158 147 153 131
252 241 230 224 222 221 225 223 219 220 221 222 225 231 241 235 233 232 234 233 255 214 220 222 217 214 215 215 212 208 203 217 240 244 234 239 232 215 240 233 197 178 170
264 246 237 225 221 222 223 221 220 220 220 220 225 229 245 238 232 231 239 248 251 212 218 220 217 216 219 219 216 213 212 224 238 253 247 244 246 250 256 247 232 195 194
274 264 239 227 217 217 217 221 221 221 220 221 223 229 248 234 234 230 239 253 234 218 217 218 215 215 219 220 219 216 215 222 231 246 255 253 260 257 250 259 250 234 200
294 266 249 224 218 220 219 219 221 225 224 221 222 230 251 234 237 231 237 248 238 220 219 216 215 216 215 216 215 214 217 221 226 241 256 265 274 254 241 244 253 263 244
297 262 224 225 226 219 217 219 223 227 227 224 224 232 247 248 238 230 235 244 230 221 217 218 215 214 213 214 216 218 219 218 225 236 243 261 263 243 214 209 237 257 226
284 268 240 226 219 218 218 222 225 228 227 226 224 232 244 249 233 228 233 240 230 223 220 220 217 215 215 215 217 218 217 216 225 231 227 243 233 227 223 164 152 175 186
346 283 242 232 222 221 221 224 226 227 225 221 225 230 243 244 230 229 235 235 231 223 218 221 219 218 216 216 218 220 215 218 223 221 224 217 212 209 190 180 174 175 166
358 350 294 246 229 224 223 226 227 227 225 222 223 229 241 236 228 230 231 233 227 220 216 219 221 222 220 220 220 218 212 215 216 209 209 199 186 185 179 177 165 156 145
359 359 350 300 262 234 232 225 228 229 226 223 224 229 235 229 228 226 228 231 219 218 219 220 220 222 223 222 220 217 209 214 203 206 195 180 178 173 172 177 173 176 179
353 356 353 352 299 262 237 230 227 228 228 225 225 229 231 226 223 222 225 219 215 219 221 222 223 221 222 226 228 215 208 203 199 193 191 177 176 174 174 175 176 168 164
351 350 354 355 348 296 271 245 228 228 228 227 226 229 228 224 218 218 219 217 218 220 222 225 228 226 227 229 222 206 202 194 187 198 189 177 181 176 168 180 171 167 157
349 347 345 346 352 339 288 268 250 233 228 229 227 227 226 222 217 210 211 217 218 222 224 228 229 227 227 224 213 198 188 194 182 188 202 184 175 174 173 177 178 168 151
344 341 337 338 334 346 336 271 257 247 237 228 228 226 222 214 212 211 207 218 227 225 225 227 228 225 223 213 205 190 187 186 176 191 198 180 181 174 179 180 172 163 156
345 339 334 329 325 320 336 334 294 257 245 246 233 225 214 210 208 203 198 209 229 226 224 223 225 226 219 206 193 184 180 186 191 185 191 181 183 187 177 174 169 163 154
342 338 330 329 332 325 319 323 308 288 297 251 240 232 211 205 202 197 211 219 218 223 222 222 225 223 215 200 190 178 199 195 189 182 180 172 179 180 172 171 169 173 165
318 332 334 325 325 322 322 309 305 291 300 263 270 236 224 195 197 204 211 216 216 218 217 219 216 210 204 204 180 187 201 205 196 186 176 168 172 174 173 173 176 178 164
320 315 323 330 317 323 316 316 309 312 283 285 280 249 202 193 200 205 210 213 214 215 216 215 214 203 194 189 191 189 202 193 186 185 176 179 178 173 176 172 177 171 160
313 319 307 319 326 322 338 0 334 294 288 292 283 205 214 199 203 206 212 214 208 208 211 212 208 197 189 188 199 192 187 183 191 191 185 184 182 183 181 179 175 170 163
307 311 312 299 303 305 336 343 2 12 24 15 320 193 183 204 201 204 209 214 213 212 215 216 214 207 192 196 202 201 184 185 194 196 194 194 192 189 185 181 178 175 174
307 306 298 299 289 288 286 321 339 9 1 37 312 294 230 208 199 198 199 208 213 216 222 229 234 206 205 197 202 200 186 187 193 196 202 195 193 193 190 190 190 189 196